星链-5059 (STARLINK-5059 )

导读

STARLINK-5059是美国SpaceX公司星链(Starlink)星座项目的卫星,于2022年9月24日成功发射。星链计划旨在通过部署数千颗低轨卫星,为全球偏远、网络基础设施匮乏地区提供高速低延迟宽带互联网服务。该卫星属于星链大规模组网的一部分,助力项目推进全球覆盖目标,目前星链已在全球六十多个国家和地区落地服务,不断拓展卫星互联网应用场景。

基本信息
目录编号:
53912
目录名称:
STARLINK-5059
国际标识:
2022-119AC
轨道中心:
EARTH
卫星名称:
星链-5059
卫星全名:
星链-5059 (STARLINK-5059 )
卫星状态:
在轨 (已飞行1449 天)
发射日期:
2022-09-24 UTC
国别 :
美国 (US)
星等 :
--
该卫星已列入 空间交会检测服务 Space Conjunction Data Service (SCDS) ,当前飞行风险评估等级: 无高风险
轨道信息
数据来源 国际轨道数据 AOE轨道数据
星历时间 2026-09-12T13:53:14+0800
8小时前
查看轨道信息
2026-09-11T01:00:00+0800
1天前
查看轨道信息
半长轴 6917.904km 6917.886km
偏心率 0.0001364 0.0001341
轨道倾角 53.161° 53.160°
近地点辐角 79.836° 91.458°
升交点赤经 195.664° 202.572°
平近点角 280.278° 195.563°
近地点 538.823km 538.821km
远地点 540.711km 540.677km
周期 95.438分钟 95.438分钟
每日圈数 15.088326 15.088383
详细信息
固有亮度:
5
最大亮度:
2.5
卫星平台:
Starlink v1.5
覆盖范围:
全球
运营商:
太空探索技术公司
运营商所在国:
美国
制造商(研发单位):
太空探索技术公司
制造商所在国:
美国
使用方式:
暂无
卫星简介
星链(Starlink)计划是由太空探索技术公司(SpaceX)提出的一个巨型低轨卫星互联网星座项目,计划在2019年至2024年间在太空搭建由约1.2万颗卫星组成的“星链”网络,其中1584颗将部署在地球上空550千米处的近地轨道,并从2020年开始工作。该卫星仍在工作。
2D轨道图
3D轨道图
轨道高度分析图
轨道倾角分析图
轨道综合分析图
查看轨道综合分析图
交会数据列表
事件ID 空间交会对象 最接近时刻(TCA) 交会距离 交会风险概率(CRP) 交会风险指数(CRI) 操作
CDM_260914-010604-283605-391222
OBJECT M (42836)
2026-09-14T
01:06:50+0000
2.239 km
极远距离
2.077502E-6 低风险 0.41
CDM_260914-033004-283605-391222
OBJECT M (42836)
2026-09-14T
03:30:00+0000
2.610 km
极远距离
1.547774E-6 低风险 0.39
CDM_260904-231803-705605-391223
2026-09-04T
23:18:34+0000
2.745 km
极远距离
1.159593E-6 低风险 0.36
与全量物体交会距离演化趋势
与全量物体交会风险概率演化趋势